Peoria, IL

8:01 PM CDT on May 22, 2017 (GMT -0500)
Greater Peoria Regional

Weather History for KPIA - July, 2014

Change the Weather History Date:

Sunday, July 13, 2014

  Actual Average Record
Temperature  
Mean Temperature 79 °F 76 °F  
Max Temperature 86 °F 86 °F 109 °F (1936)
Min Temperature 71 °F 66 °F 48 °F (1975)
Degree Days  
Heating Degree Days 0 0  
Month to date heating degree days 0 0  
Since 1 June heating degree days 0 18  
Since 1 July heating degree days 0 0  
Cooling Degree Days 14 11  
Month to date cooling degree days 113 141  
Year to date cooling degree days 563 444  
Since 1 June cooling degree days 405 363  
Growing Degree Days 28 (Base 50)    
Moisture  
Dew Point 69 °F    
Average Humidity 72    
Maximum Humidity 93    
Minimum Humidity 51    
Precipitation  
Precipitation 0.33 in 0.13 in 1.98 in (1963)
Month to date precipitation 1.10 1.65  
Year to date precipitation 22.75 19.51  
Snow  
Snow 0.00 in 0.00 in 0.00 in ()
Month to date snowfall 0.0 0.0  
Since 1 June snowfall 0.0 0.0  
Since 1 July snowfall 0.0 0.0  
Snow Depth 0.00 in    
Sea Level Pressure  
Sea Level Pressure 29.94 in    
Wind  
Wind Speed 5 mph (West)    
Max Wind Speed 17 mph    
Max Gust Speed 26 mph    
Visibility 9 miles    
Events Rain , Thunderstorm    
T = Trace of Precipitation, MM = Missing Value Source: NWS Daily Summary

Daily Weather History Graph

Daily Weather History Graph

Search for Another Location

Airport or City:

Trip Planner

Search our weather history database for the weather conditions in past years. The results will help you decide how hot, cold, wet, or windy it might be!

Date:

Astronomy

Jul. 13, 2014 Rise Set
Actual Time 5:39 AM CDT 8:29 PM CDT
Civil Twilight 5:06 AM CDT 9:01 PM CDT
Nautical Twilight 4:25 AM CDT 9:42 PM CDT
Astronomical Twilight 3:38 AM CDT 10:29 PM CDT
Moon 9:16 PM CDT (7/13) 7:10 AM CDT (7/13)
Length of Visible Light 15h 55m
Length of Day
14h 50m
Full, 98% of the Moon is Illuminated
Jul 13
Full
Jul 18
Last Quarter
Jul 26
New
Aug 3
First Quarter
Aug 10
Full

Hourly Weather History & Observations

Time (CDT) Temp. Heat Index Dew Point Humidity Pressure Visibility Wind Dir Wind Speed Gust Speed Precip Events Conditions
12:51 AM 75.2 °F - 69.8 °F 83% 29.92 in 10.0 mi WNW 12.7 mph - 0.00 in Rain , Thunderstorm Light Rain
12:54 AM 75.0 °F - 69.1 °F 82% 29.90 in 10.0 mi NW 10.4 mph 20.7 mph 0.00 in Rain , Thunderstorm Light Rain
1:09 AM 75.0 °F - 70.0 °F 84% 29.93 in 3.0 mi WNW 15.0 mph 26.5 mph 0.03 in Rain , Thunderstorm Thunderstorms and Rain
1:20 AM 75.0 °F - 71.1 °F 87% 29.94 in 2.5 mi WNW 8.1 mph 20.7 mph 0.11 in Rain , Thunderstorm Thunderstorms and Rain
1:28 AM 73.9 °F - 71.1 °F 91% 29.94 in 4.0 mi Variable 6.9 mph - 0.14 in Rain , Thunderstorm Thunderstorms and Rain
1:43 AM 73.9 °F - 70.0 °F 87% 29.93 in 6.0 mi NW 5.8 mph - 0.18 in Rain , Thunderstorm Rain
1:54 AM 73.9 °F - 70.0 °F 87% 29.92 in 4.0 mi WNW 4.6 mph - 0.19 in Rain , Thunderstorm Thunderstorms and Rain
2:20 AM 73.9 °F - 70.0 °F 87% 29.94 in 4.0 mi West 5.8 mph - 0.07 in Rain , Thunderstorm Thunderstorms and Rain
2:29 AM 73.9 °F - 70.0 °F 87% 29.95 in 4.0 mi WSW 6.9 mph - 0.10 in Rain Rain
2:35 AM 73.9 °F - 70.0 °F 87% 29.94 in 4.0 mi WSW 6.9 mph - 0.11 in Rain , Thunderstorm Thunderstorms and Rain
2:51 AM 73.4 °F - 71.6 °F 94% 29.94 in 6.0 mi WSW 6.9 mph - 0.13 in Rain , Thunderstorm Light Rain
2:54 AM 73.9 °F - 71.1 °F 91% 29.92 in 7.0 mi WSW 5.8 mph - 0.14 in Rain , Thunderstorm Light Rain
3:03 AM 73.9 °F - 70.0 °F 87% 29.93 in 10.0 mi WSW 6.9 mph - 0.00 in Rain Light Rain
3:16 AM 73.9 °F - 70.0 °F 87% 29.93 in 10.0 mi WSW 6.9 mph - 0.00 in   Overcast
3:27 AM 73.9 °F - 70.0 °F 87% 29.94 in 10.0 mi WSW 8.1 mph - 0.00 in   Overcast
3:54 AM 73.9 °F - 70.0 °F 87% 29.94 in 10.0 mi West 8.1 mph - 0.00 in   Overcast
4:41 AM 73.0 °F - 70.0 °F 90% 29.94 in 10.0 mi WNW 3.5 mph - N/A   Mostly Cloudy
4:54 AM 73.0 °F - 70.0 °F 90% 29.93 in 10.0 mi WNW 6.9 mph - N/A   Mostly Cloudy
5:14 AM 73.0 °F - 70.0 °F 90% 29.94 in 10.0 mi NW 3.5 mph - N/A   Mostly Cloudy
5:24 AM 73.0 °F - 69.1 °F 87% 29.95 in 10.0 mi WNW 4.6 mph - N/A   Scattered Clouds
5:54 AM 72.0 °F - 69.1 °F 91% 29.95 in 10.0 mi NW 5.8 mph - N/A   Mostly Cloudy
6:15 AM 72.0 °F - 68.0 °F 87% 29.97 in 10.0 mi NW 3.5 mph - N/A   Scattered Clouds
6:54 AM 73.0 °F - 68.0 °F 84% 29.96 in 10.0 mi North 4.6 mph - N/A   Partly Cloudy
7:54 AM 73.0 °F - 66.9 °F 81% 29.97 in 10.0 mi Calm Calm - N/A   Mostly Cloudy
8:20 AM 73.0 °F - 66.0 °F 79% 29.99 in 10.0 mi WNW 4.6 mph - N/A   Scattered Clouds
8:54 AM 75.0 °F - 66.9 °F 76% 29.97 in 10.0 mi WNW 4.6 mph - N/A   Partly Cloudy
9:54 AM 77.0 °F - 68.0 °F 74% 29.97 in 10.0 mi Variable 5.8 mph - N/A   Partly Cloudy
10:54 AM 77.0 °F - 66.9 °F 71% 29.97 in 10.0 mi North 8.1 mph - N/A   Partly Cloudy
11:54 AM 75.9 °F - 66.0 °F 71% 29.96 in 10.0 mi NNW 4.6 mph - N/A   Clear
12:54 PM 80.1 °F 82.7 °F 68.0 °F 67% 29.95 in 10.0 mi Variable 4.6 mph - N/A   Clear
1:54 PM 84.0 °F 85.8 °F 64.9 °F 53% 29.95 in 10.0 mi Variable 4.6 mph - N/A   Clear
2:54 PM 84.0 °F 86.3 °F 66.0 °F 55% 29.94 in 10.0 mi Variable 3.5 mph - N/A   Clear
3:54 PM 84.0 °F 89.0 °F 71.1 °F 65% 29.93 in 10.0 mi SSW 10.4 mph - N/A   Mostly Cloudy
4:54 PM 82.9 °F 86.5 °F 69.1 °F 63% 29.93 in 10.0 mi SW 8.1 mph - N/A   Clear
6:54 PM 81.0 °F 84.1 °F 69.1 °F 67% 29.92 in 10.0 mi SW 8.1 mph - N/A   Clear
7:54 PM 80.1 °F 82.9 °F 69.1 °F 69% 29.91 in 10.0 mi SW 6.9 mph - N/A   Clear
8:54 PM 77.0 °F - 69.1 °F 76% 29.91 in 10.0 mi SW 5.8 mph - N/A   Clear
9:54 PM 75.9 °F - 69.1 °F 79% 29.92 in 10.0 mi Calm Calm - N/A   Clear
10:54 PM 73.9 °F - 66.9 °F 79% 29.92 in 10.0 mi NNW 6.9 mph - 0.00 in Rain Light Rain
11:54 PM 73.0 °F - 64.9 °F 76% 29.92 in 10.0 mi Calm Calm - 0.00 in   Mostly Cloudy